TimeEDT,TemperatureF,Dew PointF,Humidity,Sea Level PressureIn,VisibilityMPH,Wind Direction,Wind SpeedMPH,Gust SpeedMPH,PrecipitationIn,Events,Conditions,WindDirDegrees,DateUTC
12:54 AM,48.9,41.0,74,30.10,10.0,NNW,8.1,-,N/A,,Clear,330,2012-05-22 04:54:00
1:54 AM,46.9,41.0,80,30.10,10.0,NNW,8.1,-,N/A,,Clear,330,2012-05-22 05:54:00
2:54 AM,46.0,41.0,83,30.09,10.0,NNW,8.1,-,N/A,,Clear,340,2012-05-22 06:54:00
3:54 AM,46.0,42.1,86,30.08,10.0,NNW,8.1,-,N/A,,Clear,330,2012-05-22 07:54:00
4:54 AM,44.1,42.1,93,30.08,10.0,NNW,5.8,-,N/A,,Clear,330,2012-05-22 08:54:00
5:54 AM,45.0,42.1,90,30.08,10.0,NNW,6.9,-,N/A,,Clear,330,2012-05-22 09:54:00
6:54 AM,46.0,43.0,89,30.08,10.0,NNW,8.1,-,N/A,,Clear,330,2012-05-22 10:54:00
7:54 AM,50.0,45.0,83,30.09,10.0,North,10.4,-,N/A,,Clear,350,2012-05-22 11:54:00
8:00 AM,50.0,44.6,82,30.09,10.0,North,10.4,-,N/A,,Partly Cloudy,350,2012-05-22 12:00:00
8:54 AM,55.9,44.1,64,30.09,10.0,NNE,10.4,19.6,N/A,,Partly Cloudy,20,2012-05-22 12:54:00
9:54 AM,60.1,43.0,53,30.08,10.0,North,18.4,-,N/A,,Partly Cloudy,360,2012-05-22 13:54:00
10:54 AM,63.0,41.0,45,30.07,10.0,NNE,10.4,21.9,N/A,,Clear,20,2012-05-22 14:54:00
11:54 AM,64.0,39.9,41,30.06,10.0,NNE,10.4,19.6,N/A,,Partly Cloudy,30,2012-05-22 15:54:00
12:54 PM,64.9,41.0,42,30.05,10.0,NE,15.0,20.7,N/A,,Partly Cloudy,50,2012-05-22 16:54:00
1:54 PM,66.0,42.1,42,30.03,10.0,NNE,12.7,-,N/A,,Partly Cloudy,30,2012-05-22 17:54:00
2:54 PM,68.0,42.1,39,30.01,10.0,North,10.4,17.3,N/A,,Partly Cloudy,10,2012-05-22 18:54:00
3:54 PM,68.0,42.1,39,29.99,10.0,Variable,5.8,-,N/A,,Scattered Clouds,0,2012-05-22 19:54:00
4:54 PM,69.1,39.9,35,29.98,10.0,ENE,8.1,-,N/A,,Clear,70,2012-05-22 20:54:00
5:54 PM,69.1,37.0,31,29.97,10.0,Variable,6.9,-,N/A,,Clear,0,2012-05-22 21:54:00
6:54 PM,69.1,37.9,32,29.96,10.0,NNE,8.1,-,N/A,,Clear,30,2012-05-22 22:54:00
7:54 PM,69.1,37.0,31,29.95,10.0,Calm,Calm,-,N/A,,Clear,0,2012-05-22 23:54:00
8:54 PM,61.0,39.9,46,29.96,10.0,NE,3.5,-,N/A,,Clear,40,2012-05-23 00:54:00
9:54 PM,53.1,44.1,71,29.96,10.0,Calm,Calm,-,N/A,,Clear,0,2012-05-23 01:54:00
10:54 PM,48.9,44.1,83,29.96,10.0,Calm,Calm,-,N/A,,Clear,0,2012-05-23 02:54:00
11:54 PM,46.9,42.1,83,29.96,10.0,Calm,Calm,-,N/A,,Clear,0,2012-05-23 03:54:00